| time (UTC) | temp C | wind direction | speed KPH | gust KPH | rain 1hr cm | rain 24hr cm | rain mn cm | humidity % | barometer mb |
| 20260510190833 | 22 | 38 | 1.6 | 3.2 | 0.00 | 0.00 | 0.00 | 59 | 1013.1 |
| 20260510190330 | 23 | 148 | 0.0 | 1.6 | 0.00 | 0.00 | 0.00 | 61 | 1013.3 |
| 20260510185826 | 22 | 97 | 1.6 | 1.6 | 0.00 | 0.00 | 0.00 | 62 | 1013.3 |
| 20260510185324 | 23 | 285 | 1.6 | 3.2 | 0.00 | 0.00 | 0.00 | 62 | 1013.2 |
| 20260510184816 | 23 | 50 | 0.0 | 0.0 | 0.00 | 0.00 | 0.00 | 63 | 1013.4 |
| 20260510184313 | 22 | 131 | 3.2 | 3.2 | 0.00 | 0.00 | 0.00 | 63 | 1013.3 |
| 20260510183813 | 23 | 130 | 0.0 | 1.6 | 0.00 | 0.00 | 0.00 | 62 | 1013.2 |
| 20260510183308 | 23 | 63 | 0.0 | 1.6 | 0.00 | 0.00 | 0.00 | 62 | 1013.2 |
| 20260510182804 | 23 | 276 | 4.8 | 4.8 | 0.00 | 0.00 | 0.00 | 61 | 1013.2 |
| 20260510182301 | 22 | 54 | 1.6 | 3.2 | 0.00 | 0.00 | 0.00 | 65 | 1013.4 |
| 20260510181757 | 22 | 288 | 3.2 | 4.8 | 0.00 | 0.00 | 0.00 | 64 | 1013.4 |
| 20260510181254 | 22 | 321 | 3.2 | 4.8 | 0.00 | 0.00 | 0.00 | 64 | 1013.3 |
| 20260510180750 | 22 | 312 | 1.6 | 1.6 | 0.00 | 0.00 | 0.00 | 64 | 1013.3 |
| 20260510180248 | 22 | 67 | 1.6 | 3.2 | 0.00 | 0.00 | 0.00 | 64 | 1013.1 |
| 20260510175745 | 22 | 56 | 1.6 | 1.6 | 0.00 | 0.00 | 0.00 | 66 | 1013.4 |
| 20260510175240 | 22 | 301 | 3.2 | 3.2 | 0.00 | 0.00 | 0.00 | 65 | 1013.4 |
| 20260510174737 | 21 | 78 | 0.0 | 1.6 | 0.00 | 0.00 | 0.00 | 67 | 1013.7 |
| 20260510174234 | 21 | 178 | 1.6 | 3.2 | 0.00 | 0.00 | 0.00 | 66 | 1013.6 |
| 20260510173731 | 22 | 317 | 3.2 | 3.2 | 0.00 | 0.00 | 0.00 | 66 | 1013.3 |
| 20260510173226 | 22 | 315 | 0.0 | 0.0 | 0.00 | 0.00 | 0.00 | 65 | 1013.1 |
| 20260510172722 | 23 | 278 | 0.0 | 0.0 | 0.00 | 0.00 | 0.00 | 64 | 1013.2 |
| 20260510172218 | 23 | 276 | 0.0 | 0.0 | 0.00 | 0.00 | 0.00 | 66 | 1013.0 |
| 20260510171715 | 23 | 94 | 0.0 | 0.0 | 0.00 | 0.00 | 0.00 | 69 | 1013.2 |
| 20260510171212 | 23 | 67 | 0.0 | 1.6 | 0.00 | 0.00 | 0.00 | 67 | 1013.4 |
| 20260510170709 | 22 | 34 | 0.0 | 0.0 | 0.00 | 0.00 | 0.00 | 67 | 1013.2 |
| 20260510170205 | 22 | 122 | 1.6 | 3.2 | 0.00 | 0.00 | 0.00 | 65 | 1013.5 |
| 20260510165702 | 22 | 55 | 1.6 | 1.6 | 0.00 | 0.00 | 0.00 | 68 | 1013.2 |
| 20260510165158 | 21 | 179 | 3.2 | 3.2 | 0.00 | 0.00 | 0.00 | 68 | 1013.3 |
| 20260510164655 | 21 | 147 | 1.6 | 3.2 | 0.00 | 0.00 | 0.00 | 68 | 1013.3 |
| 20260510164152 | 21 | 157 | 1.6 | 1.6 | 0.00 | 0.00 | 0.00 | 68 | 1013.3 |
| 20260510163647 | 22 | 327 | 4.8 | 4.8 | 0.00 | 0.00 | 0.00 | 68 | 1013.5 |
| 20260510163143 | 21 | 120 | 0.0 | 0.0 | 0.00 | 0.00 | 0.00 | 71 | 1013.7 |
| 20260510162637 | 21 | 108 | 1.6 | 1.6 | 0.00 | 0.00 | 0.00 | 70 | 1013.4 |
| 20260510162135 | 20 | 285 | 3.2 | 4.8 | 0.00 | 0.00 | 0.00 | 72 | 1013.6 |
| 20260510161630 | 20 | 116 | 0.0 | 1.6 | 0.00 | 0.00 | 0.00 | 73 | 1013.2 |
| 20260510161127 | 20 | 126 | 0.0 | 1.6 | 0.00 | 0.00 | 0.00 | 73 | 1013.7 |
| 20260510160624 | 20 | 56 | 0.0 | 1.6 | 0.00 | 0.00 | 0.00 | 75 | 1013.6 |
| 20260510160124 | 19 | 91 | 1.6 | 1.6 | 0.00 | 0.00 | 0.00 | 76 | 1013.6 |
| 20260510155621 | 19 | 160 | 1.6 | 3.2 | 0.00 | 0.00 | 0.00 | 80 | 1013.7 |
| 20260510155117 | 18 | 133 | 0.0 | 1.6 | 0.00 | 0.00 | 0.00 | 80 | 1013.7 |
| 20260510154612 | 18 | 137 | 0.0 | 1.6 | 0.00 | 0.00 | 0.00 | 83 | 1013.5 |
| 20260510154108 | 18 | 156 | 0.0 | 1.6 | 0.00 | 0.00 | 0.00 | 85 | 1013.5 |
| 20260510153603 | 17 | 123 | 3.2 | 4.8 | 0.00 | 0.00 | 0.00 | 85 | 1013.6 |
| 20260510153100 | 17 | 140 | 1.6 | 1.6 | 0.00 | 0.00 | 0.00 | 88 | 1013.6 |
| 20260510152557 | 16 | 109 | 1.6 | 3.2 | 0.00 | 0.00 | 0.00 | 93 | 1014.0 |
| 20260510152053 | 16 | 160 | 1.6 | 3.2 | 0.00 | 0.00 | 0.00 | 95 | 1014.0 |
| 20260510151550 | 15 | 124 | 0.0 | 1.6 | 0.00 | 0.00 | 0.00 | 98 | 1013.7 |
| 20260510151048 | 15 | 108 | 3.2 | 3.2 | 0.00 | 0.00 | 0.00 | 99 | 1013.9 |
| 20260510150548 | 16 | 150 | 1.6 | 3.2 | 0.00 | 0.00 | 0.00 | 99 | 1013.7 |
| 20260510150044 | 15 | 145 | 3.2 | 3.2 | 0.00 | 0.00 | 0.00 | 99 | 1013.8 |
| 20260510145541 | 15 | 123 | 1.6 | 3.2 | 0.00 | 0.00 | 0.00 | 99 | 1013.5 |
| 20260510145037 | 15 | 101 | 0.0 | 1.6 | 0.00 | 0.00 | 0.00 | 99 | 1013.7 |
| 20260510144534 | 13 | 100 | 0.0 | 0.0 | 0.00 | 0.00 | 0.00 | 99 | 1014.0 |
| 20260510144030 | 14 | 116 | 0.0 | 0.0 | 0.00 | 0.00 | 0.00 | 99 | 1013.8 |
| 20260510143525 | 14 | 110 | 0.0 | 0.0 | 0.00 | 0.00 | 0.00 | 99 | 1013.8 |
| 20260510143022 | 13 | 89 | 0.0 | 0.0 | 0.00 | 0.00 | 0.00 | 99 | 1013.9 |
| 20260510142519 | 13 | 119 | 0.0 | 1.6 | 0.00 | 0.00 | 0.00 | 99 | 1013.8 |
| 20260510142016 | 13 | 118 | 3.2 | 3.2 | 0.00 | 0.00 | 0.00 | 99 | 1013.7 |
| 20260510141512 | 13 | 136 | 3.2 | 3.2 | 0.00 | 0.00 | 0.00 | 99 | 1013.6 |
| 20260510141010 | 12 | 126 | 0.0 | 1.6 | 0.00 | 0.00 | 0.00 | 99 | 1013.4 |
| 20260510140506 | 12 | 126 | 0.0 | 0.0 | 0.00 | 0.00 | 0.00 | 99 | 1013.6 |
| 20260510140000 | 12 | 123 | 1.6 | 1.6 | 0.00 | 0.00 | 0.00 | 99 | 1013.4 |
| 20260510135455 | 12 | 114 | 0.0 | 0.0 | 0.00 | 0.00 | 0.00 | 99 | 1013.5 |
| 20260510134953 | 12 | 103 | 0.0 | 0.0 | 0.00 | 0.00 | 0.00 | 99 | 1013.4 |
| 20260510134450 | 12 | 102 | 0.0 | 0.0 | 0.00 | 0.00 | 0.00 | 99 | 1013.6 |
| 20260510133947 | 12 | 101 | 0.0 | 1.6 | 0.00 | 0.00 | 0.00 | 99 | 1013.5 |
| 20260510133442 | 12 | 102 | 0.0 | 0.0 | 0.00 | 0.00 | 0.00 | 99 | 1013.3 |
| 20260510132938 | 12 | 110 | 0.0 | 0.0 | 0.00 | 0.00 | 0.00 | 99 | 1013.5 |
| 20260510132436 | 12 | 110 | 0.0 | 0.0 | 0.00 | 0.00 | 0.00 | 99 | 1013.8 |
| 20260510131932 | 11 | 110 | 0.0 | 0.0 | 0.00 | 0.00 | 0.00 | 99 | 1013.6 |
| 20260510131430 | 12 | 110 | 0.0 | 0.0 | 0.00 | 0.00 | 0.00 | 99 | 1013.6 |
| 20260510130926 | 12 | 125 | 1.6 | 1.6 | 0.00 | 0.00 | 0.00 | 99 | 1013.7 |
| 20260510130423 | 11 | 110 | 0.0 | 0.0 | 0.00 | 0.00 | 0.00 | 99 | 1013.5 |
| 20260510125921 | 11 | 122 | 3.2 | 3.2 | 0.00 | 0.00 | 0.00 | 99 | 1013.5 |
| 20260510125416 | 11 | 123 | 0.0 | 1.6 | 0.00 | 0.00 | 0.00 | 99 | 1013.2 |
| 20260510124914 | 11 | 130 | 3.2 | 3.2 | 0.00 | 0.00 | 0.00 | 99 | 1013.5 |
| 20260510124410 | 11 | 95 | 0.0 | 0.0 | 0.00 | 0.00 | 0.00 | 99 | 1013.2 |
| 20260510123906 | 11 | 138 | 1.6 | 3.2 | 0.00 | 0.00 | 0.00 | 99 | 1013.0 |
| 20260510123402 | 11 | 125 | 0.0 | 1.6 | 0.00 | 0.00 | 0.00 | 99 | 1013.0 |
| 20260510122858 | 11 | 106 | 0.0 | 0.0 | 0.00 | 0.00 | 0.00 | 99 | 1012.9 |
| 20260510122354 | 11 | 85 | 0.0 | 0.0 | 0.00 | 0.00 | 0.00 | 99 | 1013.1 |
| 20260510121850 | 11 | 25 | 1.6 | 1.6 | 0.00 | 0.00 | 0.00 | 99 | 1013.0 |
| 20260510121348 | 11 | 126 | 1.6 | 1.6 | 0.00 | 0.00 | 0.00 | 99 | 1012.9 |
| 20260510120845 | 11 | 112 | 0.0 | 0.0 | 0.00 | 0.00 | 0.00 | 99 | 1012.9 |
| 20260510120343 | 11 | 121 | 0.0 | 1.6 | 0.00 | 0.00 | 0.00 | 99 | 1012.9 |
| 20260510115838 | 10 | 113 | 0.0 | 1.6 | 0.00 | 0.00 | 0.00 | 99 | 1012.7 |
| 20260510115335 | 10 | 123 | 1.6 | 1.6 | 0.00 | 0.00 | 0.00 | 99 | 1013.0 |
| 20260510114831 | 11 | 110 | 0.0 | 0.0 | 0.00 | 0.00 | 0.00 | 99 | 1013.0 |
| 20260510114328 | 11 | 111 | 0.0 | 0.0 | 0.00 | 0.00 | 0.00 | 99 | 1012.7 |
| 20260510113828 | 10 | 109 | 0.0 | 0.0 | 0.00 | 0.00 | 0.00 | 99 | 1013.0 |
| 20260510113325 | 10 | 112 | 0.0 | 0.0 | 0.00 | 0.00 | 0.00 | 99 | 1012.7 |
| 20260510112822 | 10 | 85 | 0.0 | 0.0 | 0.00 | 0.00 | 0.00 | 99 | 1012.7 |
| 20260510112319 | 10 | 84 | 1.6 | 1.6 | 0.00 | 0.00 | 0.00 | 99 | 1012.7 |
| 20260510111815 | 10 | 82 | 0.0 | 0.0 | 0.00 | 0.00 | 0.00 | 99 | 1012.7 |
| 20260510111311 | 10 | 82 | 0.0 | 0.0 | 0.00 | 0.00 | 0.00 | 99 | 1012.4 |
| 20260510110811 | 10 | 78 | 0.0 | 0.0 | 0.00 | 0.00 | 0.00 | 99 | 1012.4 |
| 20260510110309 | 10 | 87 | 0.0 | 0.0 | 0.00 | 0.00 | 0.00 | 99 | 1012.3 |
| 20260510105804 | 10 | 106 | 0.0 | 0.0 | 0.00 | 0.00 | 0.00 | 99 | 1012.2 |
| 20260510105259 | 10 | 114 | 0.0 | 0.0 | 0.00 | 0.00 | 0.00 | 99 | 1012.1 |
| 20260510104756 | 10 | 131 | 1.6 | 1.6 | 0.00 | 0.00 | 0.00 | 99 | 1012.2 |
| 20260510104254 | 10 | 111 | 0.0 | 0.0 | 0.00 | 0.00 | 0.00 | 99 | 1012.0 |
| 20260510103749 | 10 | 105 | 0.0 | 0.0 | 0.00 | 0.00 | 0.00 | 99 | 1012.0 |
| 20260510103246 | 10 | 104 | 0.0 | 0.0 | 0.00 | 0.00 | 0.00 | 99 | 1012.2 |
| 20260510102746 | 10 | 103 | 0.0 | 0.0 | 0.00 | 0.00 | 0.00 | 99 | 1012.3 |
| 20260510102242 | 10 | 105 | 0.0 | 0.0 | 0.00 | 0.00 | 0.00 | 99 | 1012.2 |
| 20260510101740 | 10 | 99 | 0.0 | 0.0 | 0.00 | 0.00 | 0.00 | 99 | 1012.0 |
| 20260510101238 | 10 | 100 | 0.0 | 0.0 | 0.00 | 0.00 | 0.00 | 99 | 1012.1 |
| 20260510100733 | 10 | 96 | 0.0 | 0.0 | 0.00 | 0.00 | 0.00 | 99 | 1012.3 |
| 20260510100232 | 10 | 94 | 0.0 | 0.0 | 0.00 | 0.00 | 0.00 | 99 | 1012.2 |
| 20260510095727 | 10 | 94 | 0.0 | 0.0 | 0.00 | 0.00 | 0.00 | 99 | 1012.0 |
| 20260510095222 | 10 | 97 | 0.0 | 0.0 | 0.00 | 0.00 | 0.00 | 99 | 1012.1 |
| 20260510094721 | 10 | 97 | 0.0 | 0.0 | 0.00 | 0.00 | 0.00 | 99 | 1012.1 |
| 20260510094217 | 10 | 97 | 0.0 | 0.0 | 0.00 | 0.00 | 0.00 | 99 | 1012.1 |
| 20260510093713 | 10 | 95 | 0.0 | 0.0 | 0.00 | 0.00 | 0.00 | 99 | 1012.4 |
| 20260510093211 | 10 | 107 | 0.0 | 0.0 | 0.00 | 0.00 | 0.00 | 99 | 1012.2 |
| 20260510092707 | 10 | 106 | 0.0 | 0.0 | 0.00 | 0.00 | 0.00 | 99 | 1012.3 |
| 20260510092203 | 10 | 96 | 0.0 | 0.0 | 0.00 | 0.00 | 0.00 | 99 | 1012.3 |
| 20260510091658 | 10 | 97 | 0.0 | 0.0 | 0.00 | 0.00 | 0.00 | 99 | 1012.2 |
| 20260510091155 | 10 | 118 | 0.0 | 0.0 | 0.00 | 0.00 | 0.00 | 99 | 1012.3 |
| 20260510090652 | 10 | 89 | 0.0 | 0.0 | 0.00 | 0.00 | 0.00 | 99 | 1012.4 |
| 20260510090148 | 10 | 85 | 0.0 | 0.0 | 0.00 | 0.00 | 0.00 | 99 | 1012.4 |
| 20260510085643 | 10 | 85 | 0.0 | 0.0 | 0.00 | 0.00 | 0.00 | 99 | 1012.5 |
| 20260510085139 | 10 | 88 | 0.0 | 0.0 | 0.00 | 0.00 | 0.00 | 99 | 1012.8 |
| 20260510084635 | 10 | 82 | 0.0 | 0.0 | 0.00 | 0.00 | 0.00 | 99 | 1012.6 |
| 20260510084132 | 10 | 83 | 0.0 | 0.0 | 0.00 | 0.00 | 0.00 | 99 | 1012.6 |
| 20260510083629 | 10 | 82 | 0.0 | 0.0 | 0.00 | 0.00 | 0.00 | 99 | 1012.7 |
| 20260510083125 | 10 | 80 | 0.0 | 0.0 | 0.00 | 0.00 | 0.00 | 99 | 1012.1 |
| 20260510082621 | 10 | 46 | 0.0 | 0.0 | 0.00 | 0.00 | 0.00 | 99 | 1012.4 |
| 20260510082117 | 10 | 82 | 0.0 | 0.0 | 0.00 | 0.00 | 0.00 | 99 | 1012.3 |
| 20260510081612 | 10 | 349 | 3.2 | 3.2 | 0.00 | 0.00 | 0.00 | 99 | 1012.2 |
| 20260510081108 | 10 | 81 | 0.0 | 0.0 | 0.00 | 0.00 | 0.00 | 99 | 1011.9 |
| 20260510080602 | 10 | 82 | 0.0 | 0.0 | 0.00 | 0.00 | 0.00 | 99 | 1011.8 |
| 20260510080059 | 10 | 82 | 0.0 | 0.0 | 0.00 | 0.00 | 0.00 | 99 | 1011.6 |
| 20260510075556 | 9 | 82 | 0.0 | 0.0 | 0.00 | 0.00 | 0.00 | 99 | 1011.8 |
| 20260510075053 | 9 | 82 | 0.0 | 0.0 | 0.00 | 0.00 | 0.00 | 99 | 1011.5 |
| 20260510074550 | 9 | 82 | 0.0 | 0.0 | 0.00 | 0.00 | 0.00 | 99 | 1011.4 |
| 20260510074045 | 9 | 82 | 0.0 | 0.0 | 0.00 | 0.00 | 0.00 | 99 | 1011.4 |
| 20260510073542 | 9 | 82 | 0.0 | 0.0 | 0.00 | 0.00 | 0.00 | 99 | 1011.6 |
| 20260510073039 | 9 | 82 | 0.0 | 0.0 | 0.00 | 0.00 | 0.00 | 99 | 1011.7 |
| 20260510072536 | 9 | 82 | 0.0 | 0.0 | 0.00 | 0.00 | 0.00 | 99 | 1011.4 |
| 20260510072031 | 9 | 82 | 0.0 | 0.0 | 0.00 | 0.00 | 0.00 | 99 | 1011.6 |
| 20260510071527 | 9 | 82 | 0.0 | 0.0 | 0.00 | 0.00 | 0.00 | 99 | 1011.5 |
| 20260510071026 | 9 | 82 | 0.0 | 0.0 | 0.00 | 0.00 | 0.00 | 99 | 1011.7 |
| 20260510070522 | 9 | 82 | 0.0 | 0.0 | 0.00 | 0.00 | 0.00 | 99 | 1011.6 |
| 20260510070019 | 9 | 82 | 0.0 | 0.0 | 0.00 | 0.00 | 0.00 | 99 | 1011.5 |
| 20260510065515 | 10 | 82 | 0.0 | 0.0 | 0.00 | 0.00 | 0.00 | 99 | 1011.6 |
| 20260510065011 | 9 | 80 | 0.0 | 0.0 | 0.00 | 0.00 | 0.00 | 99 | 1011.5 |
| 20260510064509 | 9 | 78 | 0.0 | 1.6 | 0.00 | 0.00 | 0.00 | 99 | 1011.7 |
| 20260510064005 | 9 | 66 | 0.0 | 0.0 | 0.00 | 0.00 | 0.00 | 99 | 1011.7 |
| 20260510063502 | 9 | 62 | 1.6 | 3.2 | 0.00 | 0.00 | 0.00 | 99 | 1011.7 |
| 20260510062959 | 9 | 66 | 1.6 | 1.6 | 0.00 | 0.00 | 0.00 | 99 | 1011.4 |
| 20260510062455 | 9 | 26 | 1.6 | 3.2 | 0.00 | 0.00 | 0.00 | 99 | 1011.5 |
| 20260510061950 | 9 | 78 | 0.0 | 0.0 | 0.00 | 0.00 | 0.00 | 99 | 1011.4 |
| 20260510061447 | 10 | 78 | 0.0 | 0.0 | 0.00 | 0.00 | 0.00 | 99 | 1011.3 |
| 20260510060943 | 10 | 78 | 0.0 | 0.0 | 0.00 | 0.00 | 0.00 | 99 | 1011.3 |
| 20260510060441 | 10 | 78 | 0.0 | 0.0 | 0.00 | 0.00 | 0.00 | 99 | 1011.4 |
| 20260510055936 | 10 | 78 | 0.0 | 0.0 | 0.00 | 0.00 | 0.00 | 99 | 1011.4 |
| 20260510055432 | 10 | 78 | 0.0 | 0.0 | 0.00 | 0.00 | 0.00 | 99 | 1011.5 |
| 20260510054930 | 10 | 78 | 0.0 | 0.0 | 0.00 | 0.00 | 0.00 | 99 | 1011.3 |
| 20260510054426 | 10 | 78 | 0.0 | 0.0 | 0.00 | 0.00 | 0.00 | 99 | 1011.4 |
| 20260510053921 | 10 | 74 | 0.0 | 0.0 | 0.00 | 0.00 | 0.00 | 99 | 1011.3 |
| 20260510053417 | 10 | 78 | 0.0 | 0.0 | 0.00 | 0.00 | 0.00 | 99 | 1011.4 |
| 20260510052913 | 10 | 78 | 0.0 | 0.0 | 0.00 | 0.00 | 0.00 | 99 | 1011.6 |
| 20260510052409 | 10 | 87 | 0.0 | 1.6 | 0.00 | 0.00 | 0.00 | 99 | 1011.6 |
| 20260510051905 | 10 | 93 | 0.0 | 0.0 | 0.00 | 0.00 | 0.00 | 99 | 1011.5 |
| 20260510051402 | 10 | 93 | 0.0 | 0.0 | 0.00 | 0.00 | 0.00 | 99 | 1011.8 |
| 20260510050858 | 10 | 89 | 0.0 | 0.0 | 0.00 | 0.00 | 0.00 | 99 | 1011.6 |
| 20260510050355 | 10 | 89 | 0.0 | 0.0 | 0.00 | 0.00 | 0.00 | 99 | 1011.7 |
| 20260510045852 | 10 | 80 | 0.0 | 0.0 | 0.00 | 0.00 | 0.00 | 99 | 1011.5 |
| 20260510045349 | 10 | 78 | 0.0 | 0.0 | 0.00 | 0.00 | 0.00 | 99 | 1011.6 |
| 20260510044846 | 10 | 85 | 0.0 | 0.0 | 0.00 | 0.00 | 0.00 | 99 | 1011.6 |
| 20260510044343 | 10 | 85 | 0.0 | 0.0 | 0.00 | 0.00 | 0.00 | 99 | 1011.6 |
| 20260510043839 | 10 | 78 | 0.0 | 0.0 | 0.00 | 0.00 | 0.00 | 99 | 1011.7 |
| 20260510043335 | 10 | 72 | 0.0 | 0.0 | 0.00 | 0.00 | 0.00 | 99 | 1011.7 |
| 20260510042834 | 10 | 79 | 0.0 | 0.0 | 0.00 | 0.00 | 0.00 | 99 | 1011.6 |
| 20260510042329 | 10 | 92 | 0.0 | 0.0 | 0.00 | 0.00 | 0.00 | 99 | 1011.5 |
| 20260510041825 | 9 | 94 | 0.0 | 0.0 | 0.00 | 0.00 | 0.00 | 99 | 1011.8 |
| 20260510041323 | 9 | 104 | 0.0 | 0.0 | 0.00 | 0.00 | 0.00 | 99 | 1011.8 |
| 20260510040820 | 9 | 104 | 0.0 | 0.0 | 0.00 | 0.00 | 0.00 | 99 | 1012.0 |
| 20260510040316 | 9 | 75 | 0.0 | 0.0 | 0.00 | 0.00 | 0.00 | 99 | 1011.7 |
| 20260510035812 | 9 | 78 | 0.0 | 0.0 | 0.00 | 0.25 | 0.25 | 99 | 1011.5 |
| 20260510035308 | 9 | 78 | 0.0 | 0.0 | 0.00 | 0.25 | 0.25 | 99 | 1011.5 |
| 20260510034804 | 9 | 77 | 0.0 | 0.0 | 0.00 | 0.25 | 0.25 | 99 | 1011.4 |
| 20260510034302 | 10 | 75 | 0.0 | 0.0 | 0.00 | 0.25 | 0.25 | 99 | 1011.5 |
| 20260510033758 | 10 | 74 | 0.0 | 0.0 | 0.00 | 0.25 | 0.25 | 99 | 1011.3 |
| 20260510033256 | 10 | 77 | 0.0 | 0.0 | 0.00 | 0.25 | 0.25 | 99 | 1011.4 |
| 20260510032751 | 10 | 75 | 0.0 | 0.0 | 0.00 | 0.25 | 0.25 | 99 | 1011.4 |
| 20260510032248 | 9 | 75 | 0.0 | 0.0 | 0.00 | 0.25 | 0.25 | 99 | 1011.3 |
| 20260510031743 | 9 | 78 | 0.0 | 0.0 | 0.00 | 0.25 | 0.25 | 99 | 1011.4 |
| 20260510031239 | 9 | 77 | 0.0 | 0.0 | 0.00 | 0.25 | 0.25 | 99 | 1011.3 |
| 20260510030739 | 10 | 75 | 0.0 | 0.0 | 0.00 | 0.25 | 0.25 | 99 | 1011.1 |
| 20260510030231 | 10 | 75 | 0.0 | 0.0 | 0.00 | 0.25 | 0.25 | 99 | 1011.3 |
| 20260510025728 | 10 | 75 | 0.0 | 0.0 | 0.00 | 0.25 | 0.25 | 99 | 1011.2 |
| 20260510025226 | 10 | 75 | 0.0 | 0.0 | 0.00 | 0.25 | 0.25 | 99 | 1011.4 |
| 20260510024722 | 10 | 75 | 0.0 | 0.0 | 0.00 | 0.25 | 0.25 | 99 | 1011.5 |
| 20260510024219 | 10 | 75 | 0.0 | 0.0 | 0.00 | 0.25 | 0.25 | 99 | 1011.4 |
| 20260510023714 | 10 | 74 | 0.0 | 0.0 | 0.00 | 0.25 | 0.25 | 99 | 1011.0 |
| 20260510023212 | 10 | 78 | 0.0 | 0.0 | 0.00 | 0.25 | 0.25 | 99 | 1011.2 |
| 20260510022708 | 10 | 82 | 0.0 | 0.0 | 0.00 | 0.25 | 0.25 | 99 | 1011.2 |
| 20260510022203 | 10 | 74 | 0.0 | 0.0 | 0.00 | 0.25 | 0.25 | 99 | 1011.4 |
| 20260510021658 | 10 | 27 | 1.6 | 1.6 | 0.00 | 0.25 | 0.25 | 99 | 1011.2 |
| 20260510021155 | 10 | 354 | 3.2 | 3.2 | 0.00 | 0.25 | 0.25 | 99 | 1011.4 |
| 20260510020650 | 11 | 62 | 1.6 | 1.6 | 0.00 | 0.25 | 0.25 | 99 | 1011.2 |
| 20260510020145 | 11 | 54 | 0.0 | 0.0 | 0.00 | 0.25 | 0.25 | 99 | 1011.4 |
| 20260510015641 | 11 | 78 | 0.0 | 0.0 | 0.00 | 0.25 | 0.25 | 99 | 1011.2 |
| 20260510015138 | 11 | 78 | 0.0 | 0.0 | 0.00 | 0.25 | 0.25 | 99 | 1011.5 |
| 20260510014638 | 11 | 82 | 0.0 | 0.0 | 0.00 | 0.25 | 0.25 | 99 | 1011.1 |
| 20260510014136 | 11 | 82 | 0.0 | 0.0 | 0.00 | 0.25 | 0.25 | 99 | 1011.3 |
| 20260510013631 | 11 | 82 | 0.0 | 0.0 | 0.00 | 0.25 | 0.25 | 99 | 1011.2 |
| 20260510013126 | 11 | 82 | 0.0 | 0.0 | 0.00 | 0.25 | 0.25 | 99 | 1011.2 |
| 20260510012626 | 11 | 82 | 0.0 | 0.0 | 0.00 | 0.25 | 0.25 | 99 | 1011.3 |
| 20260510012123 | 11 | 80 | 0.0 | 0.0 | 0.00 | 0.25 | 0.25 | 99 | 1011.1 |
| 20260510011623 | 11 | 110 | 0.0 | 0.0 | 0.00 | 0.25 | 0.25 | 99 | 1011.4 |
| 20260510011119 | 11 | 111 | 0.0 | 0.0 | 0.00 | 0.25 | 0.25 | 99 | 1011.5 |
| 20260510010615 | 11 | 111 | 0.0 | 0.0 | 0.00 | 0.25 | 0.25 | 99 | 1011.2 |
| 20260510010113 | 11 | 111 | 0.0 | 0.0 | 0.00 | 0.25 | 0.25 | 99 | 1011.2 |
| 20260510005608 | 11 | 111 | 0.0 | 0.0 | 0.00 | 0.25 | 0.25 | 99 | 1010.9 |
| 20260510005106 | 11 | 111 | 0.0 | 0.0 | 0.00 | 0.25 | 0.25 | 99 | 1010.9 |
| 20260510004603 | 11 | 111 | 0.0 | 0.0 | 0.00 | 0.25 | 0.25 | 99 | 1010.7 |
| 20260510004101 | 11 | 111 | 0.0 | 0.0 | 0.00 | 0.25 | 0.25 | 99 | 1010.6 |
| 20260510003558 | 11 | 111 | 0.0 | 0.0 | 0.00 | 0.25 | 0.25 | 99 | 1010.7 |
| 20260510003054 | 11 | 111 | 0.0 | 0.0 | 0.00 | 0.25 | 0.25 | 99 | 1010.6 |
| 20260510002548 | 11 | 111 | 0.0 | 0.0 | 0.00 | 0.25 | 0.25 | 99 | 1010.8 |
| 20260510002046 | 11 | 110 | 0.0 | 0.0 | 0.00 | 0.25 | 0.25 | 99 | 1010.7 |
| 20260510001543 | 11 | 110 | 0.0 | 0.0 | 0.00 | 0.25 | 0.25 | 99 | 1010.8 |
| 20260510001042 | 11 | 110 | 0.0 | 0.0 | 0.00 | 0.25 | 0.25 | 99 | 1010.7 |
| 20260510000536 | 11 | 110 | 0.0 | 0.0 | 0.00 | 0.25 | 0.25 | 99 | 1010.9 |
| 20260510000033 | 11 | 110 | 0.0 | 0.0 | 0.00 | 0.25 | 0.25 | 99 | 1010.8 |
| 20260509235530 | 11 | 110 | 0.0 | 0.0 | 0.00 | 0.25 | 0.25 | 99 | 1010.8 |
| 20260509235027 | 11 | 111 | 0.0 | 0.0 | 0.00 | 0.25 | 0.25 | 99 | 1010.7 |
| 20260509234523 | 11 | 111 | 0.0 | 0.0 | 0.00 | 0.25 | 0.25 | 99 | 1010.7 |
| 20260509234021 | 11 | 123 | 0.0 | 1.6 | 0.00 | 0.25 | 0.25 | 99 | 1010.6 |
| 20260509233518 | 11 | 120 | 1.6 | 1.6 | 0.00 | 0.25 | 0.25 | 99 | 1010.5 |
| 20260509233015 | 11 | 113 | 0.0 | 0.0 | 0.00 | 0.25 | 0.25 | 99 | 1010.3 |
| 20260509232512 | 11 | 128 | 0.0 | 1.6 | 0.00 | 0.25 | 0.25 | 99 | 1010.4 |
| 20260509232009 | 12 | 121 | 0.0 | 1.6 | 0.00 | 0.25 | 0.25 | 99 | 1010.4 |
| 20260509231505 | 12 | 131 | 1.6 | 1.6 | 0.00 | 0.25 | 0.25 | 99 | 1010.5 |
| 20260509231003 | 12 | 130 | 3.2 | 4.8 | 0.00 | 0.25 | 0.25 | 99 | 1010.3 |
| 20260509230459 | 12 | 135 | 1.6 | 3.2 | 0.00 | 0.25 | 0.25 | 99 | 1010.3 |
| 20260509225955 | 12 | 131 | 1.6 | 1.6 | 0.00 | 0.25 | 0.25 | 99 | 1010.6 |
| 20260509225452 | 12 | 116 | 1.6 | 1.6 | 0.00 | 0.25 | 0.25 | 99 | 1010.6 |
| 20260509224948 | 12 | 121 | 1.6 | 3.2 | 0.00 | 0.25 | 0.25 | 99 | 1010.7 |
| 20260509224443 | 12 | 124 | 1.6 | 1.6 | 0.00 | 0.25 | 0.25 | 99 | 1010.7 |
| 20260509223940 | 12 | 128 | 1.6 | 1.6 | 0.00 | 0.25 | 0.25 | 99 | 1010.7 |
| 20260509223437 | 12 | 128 | 1.6 | 3.2 | 0.00 | 0.25 | 0.25 | 99 | 1010.7 |
| 20260509222935 | 12 | 120 | 0.0 | 0.0 | 0.00 | 0.25 | 0.25 | 99 | 1010.5 |
| 20260509222430 | 12 | 135 | 3.2 | 3.2 | 0.00 | 0.25 | 0.25 | 98 | 1010.7 |
| 20260509221926 | 12 | 109 | 1.6 | 1.6 | 0.00 | 0.25 | 0.25 | 98 | 1010.8 |
| 20260509221423 | 12 | 130 | 1.6 | 1.6 | 0.00 | 0.25 | 0.25 | 98 | 1011.1 |
| 20260509220918 | 12 | 159 | 1.6 | 3.2 | 0.00 | 0.25 | 0.25 | 98 | 1011.0 |
| 20260509220415 | 12 | 126 | 1.6 | 1.6 | 0.00 | 0.25 | 0.25 | 98 | 1010.8 |
| 20260509215911 | 12 | 141 | 3.2 | 3.2 | 0.00 | 0.25 | 0.25 | 98 | 1010.9 |
| 20260509215406 | 12 | 134 | 3.2 | 3.2 | 0.00 | 0.25 | 0.25 | 97 | 1011.0 |
| 20260509214904 | 12 | 128 | 1.6 | 1.6 | 0.00 | 0.25 | 0.25 | 97 | 1010.9 |
| 20260509214401 | 12 | 117 | 1.6 | 1.6 | 0.00 | 0.25 | 0.25 | 97 | 1011.2 |
| 20260509213858 | 12 | 107 | 0.0 | 0.0 | 0.43 | 0.25 | 0.25 | 96 | 1011.1 |
| 20260509213353 | 12 | 90 | 0.0 | 0.0 | 0.61 | 0.25 | 0.25 | 96 | 1011.1 |
| 20260509212851 | 12 | 88 | 0.0 | 0.0 | 0.48 | 0.18 | 0.18 | 96 | 1010.8 |
| 20260509212349 | 12 | 95 | 0.0 | 0.0 | 0.43 | 0.15 | 0.15 | 95 | 1011.4 |
| 20260509211844 | 12 | 80 | 0.0 | 0.0 | 0.30 | 0.10 | 0.10 | 94 | 1011.2 |
| 20260509211340 | 12 | 79 | 0.0 | 0.0 | 0.36 | 0.08 | 0.08 | 93 | 1011.0 |
| 20260509210837 | 13 | 80 | 0.0 | 0.0 | 0.30 | 0.05 | 0.05 | 93 | 1010.9 |
| 20260509210335 | 13 | 80 | 0.0 | 0.0 | 0.30 | 0.05 | 0.05 | 92 | 1010.8 |
| 20260509205834 | 13 | 81 | 0.0 | 0.0 | 0.00 | 0.00 | 0.00 | 92 | 1010.7 |
| 20260509205329 | 13 | 80 | 0.0 | 0.0 | 0.00 | 0.00 | 0.00 | 91 | 1011.1 |
| 20260509204826 | 13 | 80 | 0.0 | 0.0 | 0.00 | 0.00 | 0.00 | 91 | 1010.8 |
| 20260509204322 | 13 | 80 | 0.0 | 0.0 | 0.00 | 0.00 | 0.00 | 91 | 1010.9 |
| 20260509203818 | 13 | 80 | 0.0 | 0.0 | 0.00 | 0.00 | 0.00 | 91 | 1010.9 |
| 20260509203316 | 13 | 80 | 0.0 | 0.0 | 0.00 | 0.00 | 0.00 | 91 | 1010.4 |
| 20260509202812 | 13 | 80 | 0.0 | 0.0 | 0.00 | 0.00 | 0.00 | 90 | 1010.8 |
| 20260509202308 | 13 | 81 | 0.0 | 0.0 | 0.00 | 0.00 | 0.00 | 91 | 1010.8 |
| 20260509201807 | 13 | 81 | 0.0 | 0.0 | 0.00 | 0.00 | 0.00 | 90 | 1010.9 |
| 20260509201304 | 13 | 88 | 0.0 | 0.0 | 0.00 | 0.00 | 0.00 | 91 | 1010.9 |
| 20260509200801 | 13 | 80 | 0.0 | 0.0 | 0.00 | 0.00 | 0.00 | 90 | 1010.9 |
| 20260509200256 | 13 | 82 | 0.0 | 0.0 | 0.00 | 0.00 | 0.00 | 90 | 1011.1 |
| 20260509195752 | 13 | 103 | 0.0 | 0.0 | 0.00 | 0.00 | 0.00 | 89 | 1011.1 |
| 20260509195248 | 13 | 78 | 0.0 | 0.0 | 0.00 | 0.00 | 0.00 | 89 | 1011.4 |
| 20260509194742 | 13 | 82 | 0.0 | 0.0 | 0.00 | 0.00 | 0.00 | 88 | 1011.2 |
| 20260509194239 | 13 | 62 | 1.6 | 3.2 | 0.00 | 0.00 | 0.00 | 88 | 1011.3 |
| 20260509193736 | 13 | 75 | 0.0 | 0.0 | 0.00 | 0.00 | 0.00 | 87 | 1011.6 |
| 20260509193235 | 13 | 75 | 0.0 | 1.6 | 0.00 | 0.00 | 0.00 | 86 | 1011.6 |
| 20260509192732 | 14 | 82 | 0.0 | 0.0 | 0.00 | 0.00 | 0.00 | 86 | 1011.6 |
| 20260509192227 | 13 | 109 | 1.6 | 3.2 | 0.00 | 0.00 | 0.00 | 84 | 1011.7 |
| 20260509191722 | 14 | 54 | 1.6 | 1.6 | 0.00 | 0.00 | 0.00 | 84 | 1011.7 |
| 20260509191219 | 14 | 83 | 1.6 | 1.6 | 0.00 | 0.00 | 0.00 | 83 | 1011.5 |